星链-33901 (STARLINK-33901)

导读

STARLINK-33901是美国SpaceX星链计划中的一颗卫星,于2025年5月10日成功发射升空。作为星链星座的组成部分,它主要服务于全球高速互联网覆盖项目,可为偏远地区、海上及航空场景提供低延迟网络接入,进一步拓展了星链系统的全球服务能力,推动低轨卫星互联网组网进程。

基本信息
目录编号:
63878
目录名称:
STARLINK-33901
国际标识:
2025-094Q
轨道中心:
EARTH
卫星名称:
星链-33901
卫星全名:
星链-33901 (STARLINK-33901)
卫星状态:
在轨 (已飞行400 天)
发射日期:
2025-05-10 UTC
国别 :
美国 (US)
星等 :
--
轨道信息
数据来源 国际轨道数据 AOE轨道数据
星历时间 2026-06-14T04:26:49+0800
7小时前
查看轨道信息
2026-06-14T02:00:00+0800
10小时前
查看轨道信息
半长轴 6950.096km 6950.163km
偏心率 0.0003132 0.0003053
轨道倾角 70.002° 70.002°
近地点辐角 270.909° 264.732°
升交点赤经 352.142° 352.399°
平近点角 89.171° 265.489°
近地点 569.782km 569.904km
远地点 574.136km 574.148km
周期 96.105分钟 96.106分钟
每日圈数 14.983616 14.983399
详细信息
固有亮度:
5
最大亮度:
2.5
卫星平台:
Starlink V1.0
覆盖范围:
全球
运营商:
太空探索技术公司
运营商所在国:
美国
制造商(研发单位):
太空探索技术公司
制造商所在国:
美国
使用方式:
暂无
卫星简介
Starlink 计划是 SpaceX 推出的全球卫星互联网项目,通过发射低轨道卫星,为全球尤其是偏远地区提供高速、低延迟的互联网服务。自 2019 年起,Starlink 已部署数千颗卫星,旨在缩小全球数字鸿沟,推动互联网普及。该项目还为军事、航空等行业提供通信支持,带来广泛经济效益。
2D轨道图
3D轨道图
轨道高度分析图
轨道倾角分析图
轨道综合分析图
查看轨道综合分析图